Time,TemperatureF,DewpointF,PressureIn,WindDirection,WindDirectionDegrees,WindSpeedMPH,WindSpeedGustMPH,Humidity,HourlyPrecipIn,Conditions,Clouds,dailyrainin,SoftwareType,DateUTC
2013-10-18 00:14:00,63.0,23.0,29.90,North,360,1.0,2.0,22,0.00,,,0.00,weatherlink.com 1.10,2013-10-18 07:14:00,
2013-10-18 00:29:00,63.8,22.0,29.90,North,351,2.0,3.0,20,0.00,,,0.00,weatherlink.com 1.10,2013-10-18 07:29:00,
2013-10-18 00:44:00,62.8,22.0,29.90,NNE,25,3.0,5.0,21,0.00,,,0.00,weatherlink.com 1.10,2013-10-18 07:44:00,
2013-10-18 00:59:00,62.3,22.0,29.90,North,6,2.0,2.0,21,0.00,,,0.00,weatherlink.com 1.10,2013-10-18 07:59:00,
2013-10-18 01:14:00,61.4,22.0,29.91,NNE,25,2.0,3.0,22,0.00,,,0.00,weatherlink.com 1.10,2013-10-18 08:14:00,
2013-10-18 01:29:00,60.7,21.0,29.91,NNE,30,3.0,4.0,22,0.00,,,0.00,weatherlink.com 1.10,2013-10-18 08:29:00,
2013-10-18 01:44:00,60.1,22.0,29.91,North,8,2.0,4.0,23,0.00,,,0.00,weatherlink.com 1.10,2013-10-18 08:44:00,
2013-10-18 01:59:00,59.9,21.0,29.91,NNE,28,4.0,4.0,22,0.00,,,0.00,weatherlink.com 1.10,2013-10-18 08:59:00,
2013-10-18 02:14:00,59.7,22.0,29.91,NNE,27,3.0,3.0,23,0.00,,,0.00,weatherlink.com 1.10,2013-10-18 09:14:00,
2013-10-18 02:29:00,59.7,21.0,29.91,NNE,25,3.0,3.0,22,0.00,,,0.00,weatherlink.com 1.10,2013-10-18 09:29:00,
2013-10-18 02:44:00,59.6,20.0,29.92,NNE,17,0.0,3.0,22,0.00,,,0.00,weatherlink.com 1.10,2013-10-18 09:44:00,
2013-10-18 02:59:00,58.6,21.0,29.91,NNW,330,2.0,3.0,23,0.00,,,0.00,weatherlink.com 1.10,2013-10-18 09:59:00,
2013-10-18 03:14:00,58.4,22.0,29.92,NNE,19,2.0,3.0,24,0.00,,,0.00,weatherlink.com 1.10,2013-10-18 10:14:00,
2013-10-18 03:29:00,58.7,21.0,29.92,NW,321,0.0,3.0,23,0.00,,,0.00,weatherlink.com 1.10,2013-10-18 10:29:00,
2013-10-18 03:44:00,57.9,21.0,29.92,NNE,20,2.0,2.0,24,0.00,,,0.00,weatherlink.com 1.10,2013-10-18 10:44:00,
2013-10-18 03:59:00,57.6,22.0,29.92,NNE,24,4.0,5.0,25,0.00,,,0.00,weatherlink.com 1.10,2013-10-18 10:59:00,
2013-10-18 04:14:00,57.4,22.0,29.93,North,352,2.0,4.0,25,0.00,,,0.00,weatherlink.com 1.10,2013-10-18 11:14:00,
2013-10-18 04:29:00,56.9,21.0,29.93,NNW,346,1.0,2.0,25,0.00,,,0.00,weatherlink.com 1.10,2013-10-18 11:29:00,
2013-10-18 04:44:00,56.1,22.0,29.93,NNE,25,3.0,3.0,27,0.00,,,0.00,weatherlink.com 1.10,2013-10-18 11:44:00,
2013-10-18 04:59:00,55.3,23.0,29.94,NE,36,0.0,4.0,28,0.00,,,0.00,weatherlink.com 1.10,2013-10-18 11:59:00,
2013-10-18 05:14:00,55.6,22.0,29.94,NNE,28,4.0,4.0,27,0.00,,,0.00,weatherlink.com 1.10,2013-10-18 12:14:00,
2013-10-18 05:29:00,55.4,22.0,29.94,NNE,28,3.0,4.0,27,0.00,,,0.00,weatherlink.com 1.10,2013-10-18 12:29:00,
2013-10-18 05:44:00,54.8,22.0,29.95,NNE,33,1.0,3.0,28,0.00,,,0.00,weatherlink.com 1.10,2013-10-18 12:44:00,
2013-10-18 05:59:00,55.3,22.0,29.95,NNE,31,3.0,3.0,27,0.00,,,0.00,weatherlink.com 1.10,2013-10-18 12:59:00,
2013-10-18 06:15:00,54.9,22.0,29.95,NNE,20,4.0,5.0,28,0.00,,,0.00,weatherlink.com 1.10,2013-10-18 13:15:00,
2013-10-18 06:33:00,55.1,22.0,29.96,NNE,32,2.0,4.0,28,0.00,,,0.00,weatherlink.com 1.10,2013-10-18 13:33:00,
2013-10-18 06:50:00,54.6,23.0,29.96,NW,315,3.0,3.0,29,0.00,,,0.00,weatherlink.com 1.10,2013-10-18 13:50:00,
2013-10-18 07:07:00,55.1,23.0,29.97,NE,44,2.0,3.0,29,0.00,,,0.00,weatherlink.com 1.10,2013-10-18 14:07:00,
2013-10-18 07:25:00,57.6,25.0,29.98,NNW,342,0.0,1.0,28,0.00,,,0.00,weatherlink.com 1.10,2013-10-18 14:25:00,
2013-10-18 07:42:00,58.8,23.0,29.98,NNW,346,1.0,3.0,25,0.00,,,0.00,weatherlink.com 1.10,2013-10-18 14:42:00,
2013-10-18 08:00:00,61.0,25.0,29.99,NE,34,0.0,1.0,25,0.00,,,0.00,weatherlink.com 1.10,2013-10-18 15:00:00,
2013-10-18 08:16:00,62.9,24.0,30.00,NE,41,2.0,2.0,23,0.00,,,0.00,weatherlink.com 1.10,2013-10-18 15:16:00,
2013-10-18 08:34:00,64.6,25.0,30.00,ENE,76,0.0,2.0,22,0.00,,,0.00,weatherlink.com 1.10,2013-10-18 15:34:00,
2013-10-18 09:09:00,67.2,26.0,30.01,WSW,250,1.0,4.0,21,0.00,,,0.00,weatherlink.com 1.10,2013-10-18 16:09:00,
2013-10-18 09:27:00,68.6,26.0,30.01,WSW,241,1.0,4.0,20,0.00,,,0.00,weatherlink.com 1.10,2013-10-18 16:27:00,
2013-10-18 09:43:00,68.2,27.0,30.01,West,271,0.0,5.0,21,0.00,,,0.00,weatherlink.com 1.10,2013-10-18 16:43:00,
2013-10-18 10:01:00,69.9,28.0,30.01,WSW,247,2.0,4.0,21,0.00,,,0.00,weatherlink.com 1.10,2013-10-18 17:01:00,
2013-10-18 10:18:00,71.6,28.0,30.01,West,266,1.0,4.0,20,0.00,,,0.00,weatherlink.com 1.10,2013-10-18 17:18:00,
2013-10-18 10:33:00,73.7,29.0,30.00,ESE,118,0.0,4.0,19,0.00,,,0.00,weatherlink.com 1.10,2013-10-18 17:33:00,
2013-10-18 10:49:00,75.2,29.0,30.00,WSW,243,6.0,12.0,18,0.00,,,0.00,weatherlink.com 1.10,2013-10-18 17:49:00,
2013-10-18 11:04:00,76.1,27.0,30.00,West,281,8.0,11.0,16,0.00,,,0.00,weatherlink.com 1.10,2013-10-18 18:04:00,
2013-10-18 11:19:00,76.7,27.0,29.99,West,280,12.0,16.0,16,0.00,,,0.00,weatherlink.com 1.10,2013-10-18 18:19:00,
2013-10-18 11:34:00,77.2,28.0,29.98,WNW,293,16.0,19.0,16,0.00,,,0.00,weatherlink.com 1.10,2013-10-18 18:34:00,
2013-10-18 11:49:00,78.3,27.0,29.98,West,278,9.0,18.0,15,0.00,,,0.00,weatherlink.com 1.10,2013-10-18 18:49:00,
2013-10-18 12:04:00,79.3,28.0,29.97,NW,304,8.0,20.0,15,0.00,,,0.00,weatherlink.com 1.10,2013-10-18 19:04:00,
2013-10-18 12:19:00,80.3,27.0,29.97,West,262,8.0,16.0,14,0.00,,,0.00,weatherlink.com 1.10,2013-10-18 19:19:00,
2013-10-18 12:34:00,81.2,28.0,29.96,West,278,10.0,18.0,14,0.00,,,0.00,weatherlink.com 1.10,2013-10-18 19:34:00,
2013-10-18 12:49:00,82.1,27.0,29.95,West,274,9.0,16.0,13,0.00,,,0.00,weatherlink.com 1.10,2013-10-18 19:49:00,
2013-10-18 13:07:00,83.2,25.0,29.94,West,266,9.0,16.0,12,0.00,,,0.00,weatherlink.com 1.10,2013-10-18 20:07:00,
2013-10-18 13:23:00,84.1,26.0,29.93,West,268,5.0,16.0,12,0.00,,,0.00,weatherlink.com 1.10,2013-10-18 20:23:00,
2013-10-18 13:41:00,84.4,24.0,29.92,NW,307,14.0,18.0,11,0.00,,,0.00,weatherlink.com 1.10,2013-10-18 20:41:00,
2013-10-18 13:56:00,84.3,24.0,29.92,WNW,293,16.0,21.0,11,0.00,,,0.00,weatherlink.com 1.10,2013-10-18 20:56:00,
2013-10-18 14:14:00,84.6,24.0,29.92,WNW,283,11.0,16.0,11,0.00,,,0.00,weatherlink.com 1.10,2013-10-18 21:14:00,
2013-10-18 14:30:00,84.9,27.0,29.91,WNW,286,8.0,18.0,12,0.00,,,0.00,weatherlink.com 1.10,2013-10-18 21:30:00,
2013-10-18 14:48:00,85.0,25.0,29.91,West,273,9.0,18.0,11,0.00,,,0.00,weatherlink.com 1.10,2013-10-18 21:48:00,
2013-10-18 15:06:00,85.0,25.0,29.91,WNW,287,7.0,19.0,11,0.00,,,0.00,weatherlink.com 1.10,2013-10-18 22:06:00,
2013-10-18 15:21:00,84.9,25.0,29.91,WNW,283,6.0,14.0,11,0.00,,,0.00,weatherlink.com 1.10,2013-10-18 22:21:00,
2013-10-18 15:36:00,85.1,25.0,29.90,WNW,293,12.0,18.0,11,0.00,,,0.00,weatherlink.com 1.10,2013-10-18 22:36:00,
2013-10-18 15:51:00,85.1,25.0,29.90,WNW,287,4.0,14.0,11,0.00,,,0.00,weatherlink.com 1.10,2013-10-18 22:51:00,
2013-10-18 16:06:00,85.0,25.0,29.90,WNW,299,8.0,15.0,11,0.00,,,0.00,weatherlink.com 1.10,2013-10-18 23:06:00,
2013-10-18 16:21:00,84.8,25.0,29.90,WNW,290,10.0,17.0,11,0.00,,,0.00,weatherlink.com 1.10,2013-10-18 23:21:00,
2013-10-18 16:36:00,84.7,25.0,29.90,West,266,12.0,15.0,11,0.00,,,0.00,weatherlink.com 1.10,2013-10-18 23:36:00,
2013-10-18 16:51:00,84.5,24.0,29.90,WNW,284,13.0,15.0,11,0.00,,,0.00,weatherlink.com 1.10,2013-10-18 23:51:00,
2013-10-18 17:06:00,84.1,22.0,29.90,NW,310,10.0,17.0,10,0.00,,,0.00,weatherlink.com 1.10,2013-10-19 00:06:00,
2013-10-18 17:21:00,83.6,21.0,29.90,West,279,14.0,15.0,10,0.00,,,0.00,weatherlink.com 1.10,2013-10-19 00:21:00,
2013-10-18 17:36:00,83.1,21.0,29.90,WNW,292,5.0,14.0,10,0.00,,,0.00,weatherlink.com 1.10,2013-10-19 00:36:00,
2013-10-18 17:51:00,82.1,23.0,29.91,West,280,6.0,12.0,11,0.00,,,0.00,weatherlink.com 1.10,2013-10-19 00:51:00,
2013-10-18 18:06:00,81.0,22.0,29.91,WNW,299,5.0,11.0,11,0.00,,,0.00,weatherlink.com 1.10,2013-10-19 01:06:00,
2013-10-18 18:21:00,80.1,21.0,29.91,WNW,301,6.0,9.0,11,0.00,,,0.00,weatherlink.com 1.10,2013-10-19 01:21:00,
2013-10-18 18:36:00,79.1,22.0,29.91,NW,306,3.0,6.0,12,0.00,,,0.00,weatherlink.com 1.10,2013-10-19 01:36:00,
2013-10-18 18:51:00,78.5,22.0,29.92,WNW,293,2.0,6.0,12,0.00,,,0.00,weatherlink.com 1.10,2013-10-19 01:51:00,
2013-10-18 19:06:00,78.1,21.0,29.92,NW,309,3.0,5.0,12,0.00,,,0.00,weatherlink.com 1.10,2013-10-19 02:06:00,
2013-10-18 19:21:00,78.6,22.0,29.92,NW,309,6.0,11.0,12,0.00,,,0.00,weatherlink.com 1.10,2013-10-19 02:21:00,
2013-10-18 19:36:00,78.8,22.0,29.92,WNW,293,6.0,13.0,12,0.00,,,0.00,weatherlink.com 1.10,2013-10-19 02:36:00,
2013-10-18 19:51:00,78.2,22.0,29.93,WNW,290,4.0,8.0,12,0.00,,,0.00,weatherlink.com 1.10,2013-10-19 02:51:00,
2013-10-18 20:06:00,76.6,30.0,29.93,SE,128,1.0,2.0,18,0.00,,,0.00,weatherlink.com 1.10,2013-10-19 03:06:00,
2013-10-18 20:21:00,74.2,25.0,29.93,NNW,338,1.0,1.0,16,0.00,,,0.00,weatherlink.com 1.10,2013-10-19 03:21:00,
2013-10-18 20:36:00,74.3,24.0,29.93,WNW,295,3.0,4.0,15,0.00,,,0.00,weatherlink.com 1.10,2013-10-19 03:36:00,
2013-10-18 20:51:00,74.4,24.0,29.93,NW,305,1.0,5.0,15,0.00,,,0.00,weatherlink.com 1.10,2013-10-19 03:51:00,
2013-10-18 21:06:00,72.5,25.0,29.93,SSW,204,4.0,4.0,17,0.00,,,0.00,weatherlink.com 1.10,2013-10-19 04:06:00,
2013-10-18 21:21:00,73.6,26.0,29.94,SW,217,0.0,6.0,17,0.00,,,0.00,weatherlink.com 1.10,2013-10-19 04:21:00,
2013-10-18 21:37:00,72.8,27.0,29.94,West,279,4.0,5.0,18,0.00,,,0.00,weatherlink.com 1.10,2013-10-19 04:37:00,
2013-10-18 21:52:00,73.1,24.0,29.94,West,276,2.0,8.0,16,0.00,,,0.00,weatherlink.com 1.10,2013-10-19 04:52:00,
2013-10-18 22:07:00,71.1,24.0,29.95,NNW,342,1.0,2.0,17,0.00,,,0.00,weatherlink.com 1.10,2013-10-19 05:07:00,
2013-10-18 22:22:00,70.7,24.0,29.95,NNE,25,1.0,3.0,17,0.00,,,0.00,weatherlink.com 1.10,2013-10-19 05:22:00,
2013-10-18 22:37:00,69.0,24.0,29.95,SSE,154,0.0,2.0,18,0.00,,,0.00,weatherlink.com 1.10,2013-10-19 05:37:00,
2013-10-18 22:52:00,69.1,25.0,29.95,WSW,252,0.0,1.0,19,0.00,,,0.00,weatherlink.com 1.10,2013-10-19 05:52:00,
2013-10-18 23:07:00,68.4,28.0,29.95,NNE,33,0.0,1.0,22,0.00,,,0.00,weatherlink.com 1.10,2013-10-19 06:07:00,
2013-10-18 23:22:00,68.8,29.0,29.95,NW,311,0.0,4.0,23,0.00,,,0.00,weatherlink.com 1.10,2013-10-19 06:22:00,
2013-10-18 23:37:00,65.9,24.0,29.95,NNE,23,4.0,4.0,20,0.00,,,0.00,weatherlink.com 1.10,2013-10-19 06:37:00,
2013-10-18 23:52:00,65.2,23.0,29.95,NNE,24,4.0,5.0,20,0.00,,,0.00,weatherlink.com 1.10,2013-10-19 06:52:00,